Location: Banksville Park
(38.5557°N, 75.1182°W)
Time: 11:39:06
(UTC+00:00)

Resurs 01 Rocket - Pass Details

Date: 19 September 2020
Orbit: 633 x 645 km, 98.0° (Epoch: 23 October)

Event Time Altitude Azimuth Distance (km) Brightness Sun altitude
Exits shadow 01:49:33 27° 342° (NNW) 1,255 3.5 -31.8°
Drops below altitude 10° 01:51:34 10° 345° (NNW) 2,049 4.7 -32.1°
Sets 01:53:47 0° 347° (NNW) 2,962 5.6 -32.5°
